Date String (YYYY-MM-DD hh:mm:ss) UTC,Instrument flags,absolute air pressure of the measurement (hPa),sample flow rate (lpm),inlet stack bypass flow (lpm),air temperature of the measurement (°C),ambient temperature measured by the external sensor (°C),aerosol sample conditioner tube jacket temperature (°C),OPC LED temperature (°C),internal box temperature (°C),relative humidity of the measurement (%),span deviation,mass concentration of particles derived from Lorenz-Mie calculation of OPC scattering (μg/m³),mass concentration of particles derived from Lorenz-Mie calculation of OPC scattering (μg/m³),mass concentration of particles derived from Lorenz-Mie calculation of OPC scattering (μg/m³)
DateTimeUTC,F1_M11,P_M11,Q1_M11,Q2_M11,T1_M11,T2_M11,T3_M11,T4_M11,T5_M11,U1_M11,ZSPAN_M11,X0_M11,X2_M11,X1_M11
2023-06-05 14:00:00,SystemResetWarning,0835.5,5.00,000.00,030.5,028.9,000.0,038.9,032.0,30.5,0000.0,0005.67,0004.07,0003.83
2023-06-05 14:01:00,SystemResetWarning,0835.8,5.01,000.00,030.5,028.9,000.0,038.9,032.1,30.5,0001.5,0006.15,0004.20,0003.95
2023-06-05 14:02:00,SystemResetWarning,0835.5,5.01,000.00,030.5,028.9,000.0,038.9,032.1,30.6,0001.7,0006.52,0004.32,0004.07
2023-06-05 14:03:00,SystemResetWarning,0835.5,5.00,000.00,030.5,028.9,000.0,038.9,032.1,30.0,0001.5,0006.76,0004.40,0004.15
2023-06-05 14:04:00,SystemResetWarning,0835.5,4.99,000.00,030.5,028.9,000.0,038.9,032.0,30.0,0001.1,0006.95,0004.47,0004.22
2023-06-05 14:05:00,SystemResetWarning,0835.6,4.99,000.00,030.5,028.9,000.0,038.9,032.1,30.0,0000.9,0007.24,0004.55,0004.28
2023-06-05 14:06:00,SystemResetWarning,0835.6,5.00,000.00,030.5,029.0,000.0,038.9,032.1,30.1,0000.7,0007.33,0004.60,0004.34
2023-06-05 14:07:00,SystemResetWarning,0835.6,5.01,000.00,030.5,029.0,000.0,038.9,032.1,30.7,0000.8,0007.41,0004.65,0004.39
2023-06-05 14:08:00,SystemResetWarning,0835.6,5.00,000.00,030.5,029.0,000.0,038.9,032.1,30.7,0000.8,0007.51,0004.71,0004.45
2023-06-05 14:09:00,SystemResetWarning,0835.6,5.01,000.00,030.5,029.0,000.0,038.9,032.1,31.0,0000.7,0007.70,0004.82,0004.53
2023-06-05 14:10:00,SystemResetWarning,0835.6,4.99,000.00,030.5,029.0,000.0,038.9,032.1,31.1,0000.8,0007.87,0004.93,0004.64
2023-06-05 14:11:00,SystemResetWarning,0835.6,4.99,000.00,030.5,029.0,000.0,038.9,032.1,31.1,0001.1,0007.92,0004.99,0004.71
2023-06-05 14:12:00,SystemResetWarning,0835.6,5.00,000.00,030.5,029.0,000.0,038.9,032.1,31.5,0001.3,0007.96,0005.07,0004.79
2023-06-05 14:13:00,SystemResetWarning,0835.6,5.01,000.00,030.5,029.0,000.0,038.9,032.1,31.3,0001.4,0007.93,0005.10,0004.82
2023-06-05 14:14:00,SystemResetWarning,0835.6,5.01,000.00,030.5,029.0,000.0,038.9,032.1,31.2,0001.2,0007.98,0005.15,0004.84
2023-06-05 14:15:00,SystemResetWarning,0835.6,5.00,000.00,030.5,029.0,000.0,038.9,032.1,30.7,0001.4,0008.12,0005.21,0004.89
2023-06-05 14:16:00,SystemResetWarning,0835.6,5.01,000.00,030.5,029.0,000.0,038.9,032.1,30.8,0001.3,0008.15,0005.24,0004.94
2023-06-05 14:17:00,SystemResetWarning,0835.6,5.00,000.00,030.5,029.0,000.0,038.9,032.1,30.5,0001.4,0008.32,0005.26,0004.98
2023-06-05 14:18:00,SystemResetWarning,0835.6,5.00,000.00,030.6,029.0,000.0,038.9,032.1,30.5,0001.4,0008.51,0005.33,0005.05
2023-06-05 14:19:00,SystemResetWarning,0835.6,4.98,000.00,030.6,027.9,000.0,038.9,032.0,30.9,0001.3,0008.53,0005.35,0005.06
2023-06-05 14:20:00,SystemResetWarning,0835.6,5.00,000.00,030.5,026.3,000.0,038.8,031.7,31.1,0001.3,0008.59,0005.33,0005.05
2023-06-05 14:21:00,SystemResetWarning,0835.6,5.00,000.00,030.4,025.8,000.0,038.7,031.6,30.9,0001.8,0008.56,0005.29,0005.00
2023-06-05 14:22:00,SystemResetWarning,0835.6,5.01,000.00,030.3,025.9,000.0,038.7,031.5,30.9,0001.7,0008.53,0005.26,0004.95
2023-06-05 14:23:00,SystemResetWarning,0835.6,5.01,000.00,030.2,026.3,000.0,038.6,031.4,31.3,0001.7,0008.51,0005.24,0004.92
2023-06-05 14:24:00,SystemResetWarning,0835.6,4.99,000.00,030.1,026.6,000.0,038.6,031.4,31.0,0001.7,0008.52,0005.24,0004.92
2023-06-05 14:25:00,SystemResetWarning,0835.6,5.00,000.00,030.1,027.0,000.0,038.6,031.5,31.2,0002.0,0008.74,0005.26,0004.95
2023-06-05 14:26:00,SystemResetWarning,0835.6,5.00,000.00,030.1,027.3,000.0,038.6,031.5,31.7,0002.0,0008.87,0005.26,0004.97
2023-06-05 14:27:00,SystemResetWarning,0835.6,5.00,000.00,030.1,027.5,000.0,038.6,031.5,31.2,0002.3,0008.86,0005.26,0004.96
2023-06-05 14:28:00,SystemResetWarning,0835.6,4.99,000.00,030.1,027.7,000.0,038.5,031.5,31.8,0002.2,0008.80,0005.27,0004.96
2023-06-05 14:29:00,SystemResetWarning,0835.6,4.99,000.00,030.0,027.9,000.0,038.5,031.6,32.5,0002.1,0008.67,0005.25,0004.93
2023-06-05 14:30:00,SystemResetWarning,0835.6,5.00,000.00,030.1,028.0,000.0,038.5,031.6,31.5,0002.3,0008.72,0005.25,0004.89
2023-06-05 14:31:00,SystemResetWarning,0835.7,5.01,000.00,030.1,028.1,000.0,038.5,031.6,31.6,0002.2,0008.65,0005.23,0004.86
2023-06-05 14:32:00,SystemResetWarning,0835.6,5.00,000.00,030.1,028.2,000.0,038.5,031.6,30.2,0001.9,0008.59,0005.17,0004.81
2023-06-05 14:33:00,SystemResetWarning,0835.6,4.99,000.00,030.1,028.3,000.0,038.5,031.6,30.4,0001.4,0008.54,0005.13,0004.79
2023-06-05 14:34:00,SystemResetWarning,0835.6,5.01,000.00,030.1,028.4,000.0,038.5,031.6,30.9,0001.4,0008.55,0005.13,0004.79
2023-06-05 14:35:00,SystemResetWarning,0835.6,5.01,000.00,030.1,028.4,000.0,038.5,031.7,31.5,0001.1,0008.66,0005.17,0004.81
2023-06-05 14:36:00,SystemResetWarning,0835.6,5.01,000.00,030.1,028.5,000.0,038.5,031.7,31.8,0000.8,0008.82,0005.28,0004.91
2023-06-05 14:37:00,SystemResetWarning,0835.6,5.01,000.00,030.1,028.5,000.0,038.5,031.7,31.5,0000.7,0008.69,0005.39,0005.00
2023-06-05 14:38:00,SystemResetWarning,0835.6,4.99,000.00,030.1,028.6,000.0,038.5,031.7,31.5,0000.4,0008.84,0005.49,0005.09
2023-06-05 14:39:00,SystemResetWarning,0835.6,4.99,000.00,030.1,028.6,000.0,038.5,031.7,31.3,0000.6,0008.89,0005.61,0005.21
2023-06-05 14:40:00,SystemResetWarning,0835.7,5.00,000.00,030.2,028.6,000.0,038.5,031.8,31.3,0000.9,0009.02,0005.70,0005.30
2023-06-05 14:41:00,SystemResetWarning,0835.6,5.01,000.00,030.2,028.6,000.0,038.5,031.8,30.8,0000.9,0009.16,0005.78,0005.39
2023-06-05 14:42:00,SystemResetWarning,0835.6,5.01,000.00,030.2,028.7,000.0,038.5,031.8,30.5,0000.9,0009.31,0005.83,0005.45
2023-06-05 14:43:00,SystemResetWarning,0835.6,5.00,000.00,030.2,028.7,000.0,038.5,031.8,30.3,0001.1,0010.06,0005.89,0005.51
2023-06-05 14:44:00,SystemResetWarning,0835.6,5.00,000.00,030.2,028.7,000.0,038.5,031.8,30.1,0001.0,0010.11,0005.95,0005.57
2023-06-05 14:45:00,SystemResetWarning,0835.6,5.00,000.00,030.2,028.7,000.0,038.5,031.8,30.8,0001.3,0010.17,0006.00,0005.63
2023-06-05 14:46:00,SystemResetWarning,0835.6,5.00,000.00,030.2,028.7,000.0,038.5,031.9,30.3,0001.6,0010.21,0006.05,0005.69
2023-06-05 14:47:00,SystemResetWarning,0835.6,4.99,000.00,030.2,028.8,000.0,038.6,031.9,30.3,0001.8,0010.28,0006.10,0005.73
2023-06-05 14:48:00,SystemResetWarning,0835.7,5.00,000.00,030.3,028.8,000.0,038.6,031.9,30.3,0001.8,0010.28,0006.14,0005.80
2023-06-05 14:49:00,SystemResetWarning,0835.6,5.00,000.00,030.3,028.8,000.0,038.6,031.9,30.8,0001.7,0010.39,0006.17,0005.83
2023-06-05 14:50:00,SystemResetWarning,0835.7,5.00,000.00,030.3,028.8,000.0,038.6,031.9,30.5,0001.8,0010.59,0006.29,0005.92
2023-06-05 14:51:00,SystemResetWarning,0835.7,5.00,000.00,030.3,028.8,000.0,038.6,031.9,30.6,0001.8,0010.93,0006.40,0006.02
2023-06-05 14:52:00,SystemResetWarning,0835.7,5.01,000.00,030.3,028.8,000.0,038.6,031.9,30.9,0001.9,0011.54,0006.54,0006.14
2023-06-05 14:53:00,SystemResetWarning,0835.7,5.00,000.00,030.3,028.9,000.0,038.6,031.9,31.5,0001.9,0011.66,0006.67,0006.28
2023-06-05 14:54:00,SystemResetWarning,0835.7,4.99,000.00,030.3,028.9,000.0,038.6,032.0,32.1,0002.0,0011.28,0006.79,0006.40
2023-06-05 14:55:00,SystemResetWarning,0835.7,5.00,000.00,030.4,028.9,000.0,038.7,032.0,31.6,0002.0,0011.34,0006.94,0006.53
2023-06-05 14:56:00,SystemResetWarning,0835.8,4.99,000.00,030.4,028.1,000.0,038.6,031.9,31.3,0001.9,0011.63,0007.10,0006.67
2023-06-05 14:57:00,SystemResetWarning,0835.6,5.00,000.00,030.3,026.5,000.0,038.5,031.6,31.7,0001.7,0011.86,0007.25,0006.79
2023-06-05 14:58:00,SystemResetWarning,0835.6,5.00,000.00,030.2,025.7,000.0,038.4,031.5,30.8,0001.7,0012.01,0007.40,0006.95
2023-06-05 14:59:00,SystemResetWarning,0835.6,5.02,000.00,030.1,025.7,000.0,038.4,031.3,31.5,0001.9,0012.11,0007.49,0007.03
